FW7475 Weather Reports


Display with metric or nautical units.
time (UTC)temp
F
wind
direction
speed
MPH
gust
MPH
rain 1hr
in
rain 24hr
in
rain mn
in
humidity
%
barometer
mb
20260505111016 52 23 1.0 4.0 0.00 0.01 0.00 92 1016.4
20260505102017 52 26 4.0 8.0 0.00 0.01 0.00 92 1016.2
20260505101017 52 27 2.0 4.0 0.00 0.01 0.00 92 1016.3
20260505100018 52 27 4.0 8.0 0.00 0.01 0.00 92 1016.3
20260505095016 52 27 3.0 6.0 0.00 0.01 0.00 92 1016.3
20260505094016 52 26 3.0 6.0 0.00 0.01 0.00 92 1016.2
20260505093017 52 25 1.0 2.0 0.00 0.01 0.00 92 1016.2
20260505092016 52 24 1.0 3.0 0.00 0.01 0.00 92 1016.1
20260505091016 52 26 3.0 5.0 0.00 0.01 0.00 92 1016.1
20260505090016 52 24 3.0 5.0 0.00 0.01 0.00 92 1016.0
20260505085018 52 23 5.0 9.0 0.00 0.01 0.00 92 1015.9
20260505084016 52 24 5.0 9.0 0.00 0.01 0.00 92 1015.9
20260505083035 52 24 7.0 11.0 0.00 0.01 0.00 92 1015.9
20260505082015 52 24 6.0 9.0 0.00 0.01 0.00 92 1015.9
20260505081017 52 23 6.0 10.0 0.00 0.01 0.00 92 1016.0
20260505080015 52 23 5.0 9.0 0.00 0.01 0.00 92 1016.0
20260505075016 52 25 5.0 8.0 0.00 0.01 0.00 92 1016.0
20260505074017 52 25 5.0 6.0 0.00 0.01 0.00 92 1016.0
20260505073018 52 23 5.0 9.0 0.00 0.01 0.00 92 1016.0
20260505072015 52 24 4.0 6.0 0.00 0.01 0.00 92 1016.0
20260505071016 52 23 2.0 5.0 0.00 0.01 0.00 92 1015.9
20260505070017 52 23 4.0 6.0 0.00 0.01 0.00 92 1016.0
20260505065018 52 23 5.0 8.0 0.00 0.01 0.01 92 1016.1
20260505064015 52 25 6.0 9.0 0.00 0.01 0.01 92 1016.1
20260505063036 52 24 7.0 11.0 0.00 0.01 0.01 92 1016.1
20260505062017 52 24 5.0 8.0 0.00 0.01 0.01 92 1016.2
20260505061058 52 24 6.0 9.0 0.00 0.01 0.01 91 1016.2
20260505060016 52 23 6.0 10.0 0.00 0.01 0.01 91 1016.1
20260505055057 52 23 6.0 9.0 0.00 0.01 0.01 91 1016.1
20260505054017 52 24 5.0 8.0 0.00 0.01 0.01 91 1016.1
20260505053015 52 23 6.0 9.0 0.00 0.01 0.01 91 1016.1
20260505052018 53 26 6.0 10.0 0.00 0.01 0.01 91 1016.2
20260505051018 53 25 7.0 10.0 0.00 0.01 0.01 91 1016.2
20260505041017 53 26 5.0 8.0 0.00 0.01 0.01 90 1015.6
20260505040016 53 28 7.0 11.0 0.00 0.01 0.01 90 1015.5
20260505035036 53 28 6.0 10.0 0.00 0.01 0.01 89 1015.4
20260505034037 53 30 7.0 12.0 0.00 0.01 0.01 89 1015.3
20260505033016 53 30 8.0 13.0 0.00 0.01 0.01 89 1015.2
20260505032015 54 30 7.0 10.0 0.00 0.01 0.01 89 1015.1
20260505031017 54 31 8.0 11.0 0.00 0.01 0.01 89 1015.0
20260505030016 54 31 6.0 12.0 0.00 0.01 0.01 89 1015.1
20260505025016 54 30 8.0 13.0 0.00 0.01 0.01 89 1015.1
20260505024016 54 30 6.0 10.0 0.00 0.01 0.01 89 1015.0
20260505023016 54 30 6.0 8.0 0.00 0.01 0.01 89 1015.0
20260505022017 54 29 5.0 8.0 0.00 0.01 0.01 89 1014.9
20260505021015 54 29 5.0 8.0 0.00 0.01 0.01 89 1015.0
20260505020016 54 30 6.0 10.0 0.00 0.01 0.01 89 1015.0
20260505015016 54 31 5.0 9.0 0.00 0.01 0.01 89 1015.0
20260505014018 54 31 6.0 9.0 0.00 0.01 0.01 89 1015.0
20260505013015 54 27 9.0 13.0 0.00 0.01 0.01 88 1015.1
20260505012017 54 31 8.0 13.0 0.00 0.01 0.01 89 1015.2
20260505011017 55 30 7.0 12.0 0.00 0.01 0.01 88 1015.2
20260505010037 55 30 8.0 13.0 0.00 0.01 0.01 88 1015.4
20260505005015 55 32 8.0 12.0 0.00 0.01 0.01 88 1015.5
20260505004037 55 32 10.0 14.0 0.00 0.01 0.01 88 1015.7
20260505003016 55 30 10.0 14.0 0.00 0.01 0.01 88 1015.7
20260505002018 55 30 10.0 14.0 0.00 0.01 0.01 88 1015.7
20260505001016 56 36 9.0 9.0 0.00 0.01 0.01 87 1015.6
20260505000016 57 0.0 0.0 0.00 0.01 0.01 87 1015.6
20260504235017 57 0.0 0.0 0.00 0.01 0.01 88 1015.6
20260504234038 57 0.0 0.0 0.00 0.01 0.01 88 1015.5
20260504233016 57 0.0 0.0 0.00 0.01 0.01 88 1015.6
20260504232017 57 0.0 0.0 0.00 0.01 0.01 88 1015.6
20260504231017 57 0.0 0.0 0.00 0.01 0.01 88 1015.6
20260504230018 57 0.0 0.0 0.00 0.01 0.01 89 1015.7
20260504225017 57 0.0 0.0 0.00 0.01 0.01 89 1015.7
20260504224016 57 0.0 0.0 0.00 0.01 0.01 89 1015.8
20260504223017 57 0.0 0.0 0.00 0.01 0.01 89 1016.0
20260504222015 57 0.0 0.0 0.00 0.01 0.01 89 1016.0
20260504221017 56 36 10.0 12.0 0.00 0.01 0.01 90 1016.2
20260504220016 56 32 11.0 14.0 0.00 0.01 0.01 90 1016.2
20260504215017 56 33 10.0 12.0 0.00 0.01 0.01 90 1016.2
20260504214015 56 34 10.0 13.0 0.00 0.01 0.01 90 1016.2
20260504213016 56 35 9.0 11.0 0.00 0.01 0.01 90 1016.2
20260504212017 56 34 9.0 12.0 0.00 0.01 0.01 90 1016.3
20260504211017 56 34 9.0 12.0 0.00 0.01 0.01 90 1016.3
20260504210035 56 33 9.0 13.0 0.00 0.01 0.01 90 1016.4
20260504205016 56 34 9.0 11.0 0.00 0.01 0.01 91 1016.4
20260504204016 55 34 8.0 10.0 0.00 0.01 0.01 91 1016.5
20260504203015 55 35 9.0 11.0 0.00 0.01 0.01 91 1016.5
20260504202015 55 36 7.0 10.0 0.00 0.01 0.01 91 1016.4
20260504201037 55 31 7.0 10.0 0.00 0.01 0.01 92 1016.4
20260504200015 54 33 7.0 10.0 0.00 0.01 0.01 91 1016.4
20260504195016 54 31 7.0 11.0 0.00 0.01 0.01 92 1016.3
20260504194016 54 27 9.0 13.0 0.00 0.01 0.01 92 1016.3
20260504193016 54 26 9.0 14.0 0.00 0.01 0.01 92 1016.2
20260504192016 54 26 9.0 13.0 0.00 0.01 0.01 92 1016.2
20260504191018 53 24 8.0 13.0 0.00 0.01 0.01 92 1016.1
20260504190136 53 23 8.0 13.0 0.00 0.01 0.01 92 1016.1
20260504185016 53 23 10.0 16.0 0.00 0.01 0.01 92 1016.1
20260504184017 53 25 9.0 15.0 0.00 0.01 0.01 93 1016.1
20260504183037 53 30 9.0 13.0 0.00 0.01 0.01 93 1016.2
20260504182016 53 29 8.0 12.0 0.00 0.01 0.01 93 1016.2
20260504181016 53 29 9.0 12.0 0.00 0.01 0.01 93 1016.2
20260504180017 53 29 8.0 13.0 0.00 0.01 0.01 93 1016.1
20260504175018 53 27 9.0 13.0 0.00 0.01 0.01 93 1015.9
20260504174016 53 21 8.0 14.0 0.00 0.01 0.01 93 1015.9
20260504173016 53 17 10.0 14.0 0.00 0.01 0.01 93 1015.9
20260504172017 53 18 9.0 12.0 0.00 0.01 0.01 93 1015.9
20260504171015 53 18 9.0 16.0 0.00 0.01 0.01 93 1015.9
20260504151016 52 19 6.0 11.0 0.00 0.01 0.01 93 1015.3
20260504141037 52 30 8.0 12.0 0.00 0.01 0.01 93 1015.0